Location: Franzen
(48.6167°N, 15.3833°E)
Time: 20:34:04
(UTC+00:00)

Cosmos 1709 Rocket - Pass Details

Date: 05 August 2021
Orbit: 947 x 1002 km, 82.9° (Epoch: 22 September)

Event Time Altitude Azimuth Distance (km) Brightness Sun altitude
Exits shadow 23:26:26 38° 237° (WSW) 1,480 4.6 -24.5°
Maximum altitude 23:28:25 51° 285° (WNW) 1,247 4.5 -24.5°
Drops below altitude 10° 23:34:39 10° 1° (N) 2,788 7.4 -24.3°
Sets 23:37:18 0° 7° (N) 3,741 8.5 -24.3°
